JTA51 RJFF-ROAH

Flight info

Callsign JTA51
Flight time 1h 24m
Altitude 36000
Route YAMGA VEMRA Y506 HKC Y45 ONC Y525 IHEYA
Aircraft B738/M-SDE2E3FGHIRWXY/LB1

Departure

Time 2026-04-23 15:37
Airport Fukuoka Airport (RJFF)

Arrival

Time 2026-04-23 17:01
Airport Naha International Airport (ROAH)
Time Latitude Longitude Altitude Speed Heading
2026-04-23 14:51 33.59528 130.44882 41 ft 0 kts 60°
2026-04-23 15:20 33.59524 130.44875 40 ft 2 kts 60°
2026-04-23 15:20 33.59517 130.44858 40 ft 2 kts 60°
2026-04-23 15:20 33.59509 130.44842 41 ft 2 kts 60°
2026-04-23 15:20 33.59502 130.44827 40 ft 2 kts 60°
2026-04-23 15:21 33.59494 130.44812 40 ft 2 kts 61°
2026-04-23 15:21 33.59492 130.44794 40 ft 2 kts 102°
2026-04-23 15:21 33.59498 130.44777 40 ft 2 kts 135°
2026-04-23 15:21 33.59504 130.44771 40 ft 1 kts 153°
2026-04-23 15:22 33.59509 130.44768 40 ft 0 kts 150°
2026-04-23 15:26 33.59504 130.44772 40 ft 4 kts 149°
2026-04-23 15:26 33.59438 130.44820 40 ft 14 kts 149°
2026-04-23 15:27 33.59347 130.44855 40 ft 13 kts 182°
2026-04-23 15:27 33.59255 130.44855 40 ft 12 kts 175°
2026-04-23 15:27 33.59178 130.44897 40 ft 12 kts 149°
2026-04-23 15:27 33.59100 130.44949 40 ft 15 kts 150°
2026-04-23 15:28 33.58962 130.45046 40 ft 28 kts 150°
2026-04-23 15:28 33.58790 130.45166 40 ft 28 kts 150°
2026-04-23 15:28 33.58617 130.45281 40 ft 27 kts 149°
2026-04-23 15:28 33.58453 130.45393 40 ft 27 kts 150°
2026-04-23 15:29 33.58290 130.45503 40 ft 26 kts 149°
2026-04-23 15:29 33.58133 130.45613 40 ft 25 kts 149°
2026-04-23 15:29 33.58023 130.45682 40 ft 9 kts 173°
2026-04-23 15:29 33.57974 130.45642 40 ft 8 kts 240°
2026-04-23 15:30 33.57966 130.45624 40 ft 0 kts 240°
2026-04-23 15:35 33.57952 130.45595 40 ft 11 kts 241°
2026-04-23 15:36 33.57943 130.45512 40 ft 10 kts 320°
2026-04-23 15:36 33.58134 130.45381 40 ft 65 kts 330°
2026-04-23 15:36 33.58736 130.44971 41 ft 131 kts 330°
2026-04-23 15:36 33.59660 130.44328 251 ft 164 kts 332°
2026-04-23 15:37 33.60627 130.43661 1069 ft 159 kts 336°
2026-04-23 15:37 33.61654 130.42993 1581 ft 178 kts 338°
2026-04-23 15:37 33.62758 130.42297 2310 ft 185 kts 339°
2026-04-23 15:37 33.63971 130.41571 2791 ft 205 kts 347°
2026-04-23 15:38 33.65379 130.41437 3437 ft 207 kts 19°
2026-04-23 15:38 33.66654 130.42224 4081 ft 217 kts 39°
2026-04-23 15:38 33.67727 130.43597 4690 ft 233 kts 56°
2026-04-23 15:38 33.68478 130.45335 5418 ft 244 kts 71°
2026-04-23 15:39 33.68661 130.47404 6155 ft 259 kts 93°
2026-04-23 15:39 33.68162 130.49486 7028 ft 268 kts 112°
2026-04-23 15:39 33.67120 130.51419 7714 ft 284 kts 129°
2026-04-23 15:39 33.65560 130.52872 8521 ft 293 kts 150°
2026-04-23 15:40 33.63714 130.53905 9369 ft 297 kts 156°
2026-04-23 15:40 33.61778 130.54868 10154 ft 303 kts 157°
2026-04-23 15:40 33.59818 130.55844 10781 ft 314 kts 158°
2026-04-23 15:40 33.57737 130.56886 11313 ft 329 kts 158°
2026-04-23 15:41 33.55585 130.57967 11788 ft 344 kts 158°
2026-04-23 15:41 33.53332 130.59096 12262 ft 359 kts 159°
2026-04-23 15:41 33.50974 130.60278 12806 ft 372 kts 159°
2026-04-23 15:41 33.48552 130.61496 13562 ft 376 kts 159°
2026-04-23 15:42 33.46138 130.62709 14271 ft 381 kts 160°
2026-04-23 15:42 33.43661 130.63924 14969 ft 385 kts 162°
2026-04-23 15:42 33.41137 130.64952 15674 ft 388 kts 166°
2026-04-23 15:42 33.38499 130.65858 16378 ft 391 kts 169°
2026-04-23 15:43 33.35877 130.66693 17020 ft 395 kts 170°
2026-04-23 15:43 33.33190 130.67537 17663 ft 399 kts 170°
2026-04-23 15:43 33.30512 130.68387 18284 ft 403 kts 170°
2026-04-23 15:43 33.27795 130.69269 18970 ft 405 kts 171°
2026-04-23 15:44 33.25076 130.70167 19611 ft 408 kts 171°
2026-04-23 15:44 33.22326 130.71086 20292 ft 409 kts 171°
2026-04-23 15:44 33.19600 130.72000 20811 ft 414 kts 172°
2026-04-23 15:44 33.16816 130.72937 21456 ft 415 kts 172°
2026-04-23 15:45 33.14017 130.73846 21939 ft 418 kts 174°
2026-04-23 15:45 33.11169 130.74579 22502 ft 414 kts 180°
2026-04-23 15:45 33.08340 130.74864 23063 ft 406 kts 188°
2026-04-23 15:45 33.05517 130.74777 23640 ft 403 kts 193°
2026-04-23 15:46 33.02749 130.74503 24166 ft 402 kts 195°
2026-04-23 15:46 32.99967 130.74144 24799 ft 401 kts 196°
2026-04-23 15:46 32.97162 130.73753 25268 ft 405 kts 196°
2026-04-23 15:46 32.94376 130.73364 25788 ft 407 kts 196°
2026-04-23 15:47 32.91546 130.72981 26328 ft 409 kts 196°
2026-04-23 15:47 32.88693 130.72606 26872 ft 410 kts 196°
2026-04-23 15:47 32.85854 130.72243 27371 ft 412 kts 196°
2026-04-23 15:47 32.83021 130.71890 27972 ft 411 kts 196°
2026-04-23 15:48 32.80151 130.71535 28399 ft 414 kts 196°
2026-04-23 15:48 32.77297 130.71182 28930 ft 414 kts 197°
2026-04-23 15:48 32.74426 130.70831 29344 ft 417 kts 197°
2026-04-23 15:48 32.71558 130.70482 29718 ft 419 kts 197°
2026-04-23 15:49 32.68614 130.70123 30103 ft 422 kts 197°
2026-04-23 15:49 32.65696 130.69772 30708 ft 418 kts 197°
2026-04-23 15:49 32.62810 130.69432 31347 ft 414 kts 198°
2026-04-23 15:49 32.59945 130.69095 31906 ft 411 kts 198°
2026-04-23 15:50 32.57117 130.68758 32399 ft 409 kts 199°
2026-04-23 15:50 32.54258 130.68414 32862 ft 407 kts 199°
2026-04-23 15:50 32.51454 130.68076 33295 ft 406 kts 200°
2026-04-23 15:50 32.48645 130.67732 33682 ft 406 kts 200°
2026-04-23 15:51 32.45812 130.67389 34175 ft 404 kts 200°
2026-04-23 15:51 32.43034 130.67052 34561 ft 404 kts 200°
2026-04-23 15:51 32.40200 130.66705 34933 ft 404 kts 200°
2026-04-23 15:51 32.37413 130.66370 35381 ft 403 kts 201°
2026-04-23 15:52 32.34605 130.66034 35783 ft 401 kts 200°
2026-04-23 15:52 32.29039 130.65367 35803 ft 398 kts 201°
2026-04-23 15:53 32.23528 130.64702 35802 ft 400 kts 200°
2026-04-23 15:53 32.17956 130.64027 35796 ft 401 kts 200°
2026-04-23 15:54 32.12360 130.63358 35793 ft 401 kts 200°
2026-04-23 15:54 32.06749 130.62691 35801 ft 400 kts 201°
2026-04-23 15:55 32.01165 130.62021 35797 ft 401 kts 200°
2026-04-23 15:55 31.95615 130.61371 35801 ft 399 kts 201°
2026-04-23 15:56 31.90058 130.60707 35794 ft 399 kts 200°
2026-04-23 15:56 31.84489 130.60036 35795 ft 406 kts 200°
2026-04-23 15:57 31.78866 130.59378 35792 ft 398 kts 200°
2026-04-23 15:57 31.73293 130.58691 35799 ft 404 kts 202°
2026-04-23 15:58 31.68066 130.57451 35799 ft 388 kts 209°
2026-04-23 15:58 31.63127 130.55437 35797 ft 378 kts 214°
2026-04-23 15:59 31.58262 130.53197 35794 ft 379 kts 214°
2026-04-23 15:59 31.53304 130.50951 35794 ft 382 kts 214°
2026-04-23 16:00 31.48294 130.48732 35797 ft 382 kts 213°
2026-04-23 16:00 31.43317 130.46544 35800 ft 381 kts 213°
2026-04-23 16:01 31.38348 130.44362 35792 ft 381 kts 213°
2026-04-23 16:01 31.33342 130.42168 35787 ft 381 kts 213°
2026-04-23 16:02 31.28399 130.40002 35786 ft 381 kts 213°
2026-04-23 16:02 31.23435 130.37764 35787 ft 382 kts 214°
2026-04-23 16:03 31.18479 130.35410 35787 ft 381 kts 214°
2026-04-23 16:03 31.16032 130.34251 35554 ft 377 kts 213°
2026-04-23 16:03 31.13567 130.33109 35363 ft 382 kts 213°
2026-04-23 16:04 31.08609 130.30830 34455 ft 391 kts 212°
2026-04-23 16:04 31.06089 130.29700 34953 ft 386 kts 212°
2026-04-23 16:04 31.03561 130.28529 35280 ft 383 kts 213°
2026-04-23 16:04 31.01117 130.27368 35591 ft 381 kts 214°
2026-04-23 16:05 30.99468 130.26576 35769 ft 382 kts 214°
2026-04-23 16:05 30.93723 130.23825 35793 ft 381 kts 213°
2026-04-23 16:06 30.88854 130.21538 35796 ft 380 kts 214°
2026-04-23 16:06 30.83871 130.19200 35794 ft 387 kts 213°
2026-04-23 16:07 30.78904 130.16891 35798 ft 384 kts 214°
2026-04-23 16:07 30.73928 130.14581 35801 ft 382 kts 213°
2026-04-23 16:08 30.68981 130.12291 35800 ft 385 kts 213°
2026-04-23 16:08 30.64015 130.09984 35802 ft 386 kts 214°
2026-04-23 16:09 30.58951 130.07638 35802 ft 389 kts 213°
2026-04-23 16:09 30.53901 130.05327 35800 ft 391 kts 213°
2026-04-23 16:10 30.48852 130.03065 35801 ft 382 kts 212°
2026-04-23 16:10 30.43840 130.00813 35804 ft 391 kts 213°
2026-04-23 16:11 30.38750 129.98523 35803 ft 392 kts 212°
2026-04-23 16:11 30.33649 129.96234 35804 ft 393 kts 212°
2026-04-23 16:12 30.28510 129.94058 35797 ft 394 kts 212°
2026-04-23 16:12 30.23369 129.91946 35790 ft 393 kts 211°
2026-04-23 16:13 30.18172 129.89809 35792 ft 390 kts 211°
2026-04-23 16:13 30.10381 129.86592 35793 ft 395 kts 211°
2026-04-23 16:14 30.05169 129.84438 35785 ft 396 kts 211°
2026-04-23 16:14 30.00015 129.82317 35785 ft 391 kts 212°
2026-04-23 16:15 29.94864 129.80006 35783 ft 396 kts 213°
2026-04-23 16:15 29.89780 129.77626 35786 ft 396 kts 213°
2026-04-23 16:16 29.84602 129.75200 35788 ft 399 kts 213°
2026-04-23 16:16 29.79439 129.72812 35789 ft 398 kts 213°
2026-04-23 16:17 29.74293 129.70445 35798 ft 398 kts 213°
2026-04-23 16:17 29.69107 129.68060 35796 ft 399 kts 212°
2026-04-23 16:18 29.63967 129.65706 35800 ft 397 kts 212°
2026-04-23 16:18 29.58800 129.63333 35801 ft 399 kts 212°
2026-04-23 16:19 29.53635 129.60973 35808 ft 398 kts 212°
2026-04-23 16:19 29.48430 129.58594 35809 ft 401 kts 212°
2026-04-23 16:20 29.43257 129.56235 35815 ft 402 kts 212°
2026-04-23 16:20 29.38042 129.53845 35807 ft 402 kts 211°
2026-04-23 16:21 29.32856 129.51494 35813 ft 401 kts 211°
2026-04-23 16:21 29.27566 129.49277 35809 ft 404 kts 210°
2026-04-23 16:22 29.22233 129.47144 35810 ft 407 kts 210°
2026-04-23 16:22 29.16901 129.45015 35816 ft 401 kts 210°
2026-04-23 16:23 29.11598 129.42870 35818 ft 406 kts 210°
2026-04-23 16:23 29.06288 129.40723 35820 ft 404 kts 211°
2026-04-23 16:24 29.00994 129.38579 35824 ft 404 kts 210°
2026-04-23 16:24 28.95686 129.36383 35821 ft 404 kts 212°
2026-04-23 16:25 28.90443 129.34065 35828 ft 407 kts 212°
2026-04-23 16:25 28.85166 129.31720 35821 ft 402 kts 211°
2026-04-23 16:26 28.79947 129.29419 35821 ft 406 kts 211°
2026-04-23 16:26 28.74638 129.27078 35824 ft 408 kts 211°
2026-04-23 16:27 28.69329 129.24762 35825 ft 405 kts 211°
2026-04-23 16:27 28.64081 129.22470 35830 ft 409 kts 211°
2026-04-23 16:28 28.58752 129.20140 35828 ft 409 kts 211°
2026-04-23 16:28 28.53468 129.17841 35831 ft 404 kts 211°
2026-04-23 16:29 28.48138 129.15512 35830 ft 411 kts 211°
2026-04-23 16:29 28.42850 129.13216 35827 ft 405 kts 211°
2026-04-23 16:30 28.37500 129.10890 35832 ft 410 kts 211°
2026-04-23 16:30 28.32182 129.08591 35837 ft 411 kts 211°
2026-04-23 16:31 28.26809 129.06262 35834 ft 411 kts 211°
2026-04-23 16:31 28.21461 129.03950 35840 ft 413 kts 210°
2026-04-23 16:32 28.16063 129.01621 35841 ft 414 kts 210°
2026-04-23 16:32 28.10718 128.99246 35844 ft 410 kts 211°
2026-04-23 16:33 28.05411 128.96802 35842 ft 413 kts 211°
2026-04-23 16:33 28.00076 128.94345 35843 ft 413 kts 211°
2026-04-23 16:34 27.94740 128.91901 35853 ft 413 kts 211°
2026-04-23 16:34 27.89426 128.89476 35844 ft 412 kts 211°
2026-04-23 16:35 27.84084 128.87152 35849 ft 414 kts 210°
2026-04-23 16:35 27.78630 128.84848 35855 ft 415 kts 209°
2026-04-23 16:36 27.73238 128.82577 35851 ft 415 kts 210°
2026-04-23 16:36 27.67820 128.80289 35848 ft 415 kts 209°
2026-04-23 16:37 27.62426 128.78009 35847 ft 415 kts 210°
2026-04-23 16:37 27.56997 128.75711 35847 ft 413 kts 210°
2026-04-23 16:38 27.51600 128.73427 35856 ft 417 kts 210°
2026-04-23 16:38 27.46417 128.70767 35858 ft 400 kts 220°
2026-04-23 16:39 27.42227 128.66792 35858 ft 391 kts 234°
2026-04-23 16:39 27.39011 128.61949 35857 ft 383 kts 242°
2026-04-23 16:40 27.36277 128.56828 35854 ft 384 kts 244°
2026-04-23 16:40 27.33600 128.51637 35857 ft 383 kts 244°
2026-04-23 16:41 27.30922 128.46486 35854 ft 383 kts 244°
2026-04-23 16:41 27.28212 128.41318 35852 ft 383 kts 244°
2026-04-23 16:42 27.25515 128.36202 35857 ft 383 kts 243°
2026-04-23 16:42 27.22811 128.31094 35408 ft 375 kts 243°
2026-04-23 16:43 27.21468 128.28564 34857 ft 371 kts 243°
2026-04-23 16:43 27.20164 128.26105 34184 ft 370 kts 242°
2026-04-23 16:43 27.18847 128.23622 33400 ft 371 kts 242°
2026-04-23 16:43 27.17521 128.21118 32594 ft 374 kts 241°
2026-04-23 16:44 27.16186 128.18602 31806 ft 377 kts 242°
2026-04-23 16:44 27.14848 128.16080 30909 ft 382 kts 242°
2026-04-23 16:44 27.13479 128.13500 30001 ft 386 kts 242°
2026-04-23 16:44 27.12102 128.10907 29030 ft 392 kts 241°
2026-04-23 16:45 27.10710 128.08287 28246 ft 394 kts 241°
2026-04-23 16:45 27.09304 128.05644 27924 ft 398 kts 241°
2026-04-23 16:45 27.07864 128.02940 27325 ft 409 kts 240°
2026-04-23 16:45 27.06352 128.00267 26609 ft 409 kts 237°
2026-04-23 16:46 27.04565 127.97744 25852 ft 409 kts 229°
2026-04-23 16:46 27.02437 127.95632 25091 ft 412 kts 220°
2026-04-23 16:46 27.00045 127.93905 24318 ft 414 kts 213°
2026-04-23 16:46 26.97422 127.92468 23603 ft 414 kts 208°
2026-04-23 16:47 26.94758 127.91370 22954 ft 414 kts 200°
2026-04-23 16:47 26.91919 127.90737 22286 ft 416 kts 192°
2026-04-23 16:47 26.89029 127.90536 21629 ft 416 kts 187°
2026-04-23 16:47 26.86166 127.90533 20954 ft 415 kts 184°
2026-04-23 16:48 26.83278 127.90624 20279 ft 413 kts 184°
2026-04-23 16:48 26.80402 127.90749 19598 ft 411 kts 183°
2026-04-23 16:48 26.77559 127.90878 18916 ft 409 kts 183°
2026-04-23 16:48 26.74699 127.91000 18230 ft 407 kts 183°
2026-04-23 16:49 26.72832 127.91075 17782 ft 405 kts 183°
2026-04-23 16:49 26.69087 127.91216 16888 ft 401 kts 183°
2026-04-23 16:49 26.66328 127.91309 16219 ft 399 kts 183°
2026-04-23 16:49 26.63544 127.91398 15535 ft 396 kts 183°
2026-04-23 16:50 26.60786 127.91482 14878 ft 393 kts 184°
2026-04-23 16:50 26.58087 127.91562 14216 ft 390 kts 184°
2026-04-23 16:50 26.55358 127.91642 13550 ft 387 kts 184°
2026-04-23 16:50 26.52661 127.91719 12936 ft 383 kts 184°
2026-04-23 16:51 26.50016 127.91795 12348 ft 378 kts 184°
2026-04-23 16:51 26.47425 127.91869 11723 ft 374 kts 183°
2026-04-23 16:51 26.44793 127.91943 11078 ft 370 kts 183°
2026-04-23 16:51 26.42239 127.92015 10422 ft 367 kts 183°
2026-04-23 16:52 26.39715 127.91936 9802 ft 360 kts 190°
2026-04-23 16:52 26.37294 127.91328 9181 ft 351 kts 202°
2026-04-23 16:52 26.35045 127.90282 8546 ft 347 kts 208°
2026-04-23 16:52 26.32900 127.89097 7929 ft 344 kts 210°
2026-04-23 16:53 26.30772 127.87888 7303 ft 342 kts 210°
2026-04-23 16:53 26.28653 127.86713 6691 ft 340 kts 208°
2026-04-23 16:53 26.26509 127.85568 6065 ft 338 kts 208°
2026-04-23 16:53 26.24382 127.84456 5460 ft 336 kts 207°
2026-04-23 16:54 26.22275 127.83370 5045 ft 328 kts 207°
2026-04-23 16:54 26.20248 127.82342 4861 ft 313 kts 207°
2026-04-23 16:54 26.18305 127.81363 4730 ft 299 kts 207°
2026-04-23 16:54 26.16448 127.80425 4594 ft 286 kts 207°
2026-04-23 16:55 26.14656 127.79513 4448 ft 274 kts 208°
2026-04-23 16:55 26.12961 127.78640 4314 ft 263 kts 207°
2026-04-23 16:55 26.11325 127.77798 4185 ft 252 kts 208°
2026-04-23 16:55 26.09755 127.76993 4082 ft 242 kts 207°
2026-04-23 16:56 26.08245 127.76222 3984 ft 232 kts 207°
2026-04-23 16:56 26.06832 127.75467 3884 ft 222 kts 213°
2026-04-23 16:56 26.05676 127.74371 3719 ft 214 kts 238°
2026-04-23 16:56 26.05144 127.72874 3527 ft 208 kts 262°
2026-04-23 16:57 26.05051 127.71282 3328 ft 206 kts 268°
2026-04-23 16:57 26.04999 127.69685 3089 ft 205 kts 267°
2026-04-23 16:57 26.04999 127.68112 2868 ft 206 kts 277°
2026-04-23 16:57 26.05508 127.66619 2668 ft 209 kts 307°
2026-04-23 16:58 26.06634 127.65604 2401 ft 214 kts 331°
2026-04-23 16:58 26.08066 127.65066 2022 ft 219 kts 348°
2026-04-23 16:58 26.09551 127.64966 1676 ft 206 kts 359°
2026-04-23 16:58 26.10925 127.64980 1448 ft 185 kts 356°
2026-04-23 16:59 26.12140 127.64890 1228 ft 165 kts 353°
2026-04-23 16:59 26.13248 127.64830 971 ft 151 kts 357°
2026-04-23 16:59 26.14271 127.64799 801 ft 144 kts 355°
2026-04-23 16:59 26.15281 127.64736 614 ft 144 kts 355°
2026-04-23 17:00 26.16294 127.64700 443 ft 145 kts 358°
2026-04-23 17:00 26.17296 127.64659 252 ft 144 kts 357°
2026-04-23 17:00 26.18310 127.64645 68 ft 146 kts 357°
2026-04-23 17:00 26.19272 127.64600 29 ft 115 kts 358°
2026-04-23 17:01 26.19834 127.64574 28 ft 48 kts 358°
2026-04-23 17:01 26.20159 127.64572 25 ft 45 kts
2026-04-23 17:01 26.20403 127.64682 25 ft 29 kts 27°
2026-04-23 17:01 26.20549 127.64748 26 ft 17 kts 360°
2026-04-23 17:02 26.20628 127.64748 26 ft 13 kts
2026-04-23 17:02 26.20698 127.64826 28 ft 8 kts 47°
2026-04-23 17:02 26.20719 127.64851 28 ft 1 kts 48°
2026-04-23 17:02 26.20722 127.64855 28 ft 1 kts 48°
2026-04-23 17:03 26.20725 127.64859 29 ft 0 kts 48°
2026-04-23 17:03 26.20726 127.64860 29 ft 0 kts 48°